Terug naar catalogus

CZ-6A DEB

ActiefPO
NORAD 64663·DEBRIS·🇨🇳 China

Gelanceerd Aug 6, 2024 vanaf Taiyuan Satellite Launch Center

Loading…

Volgende Passages (komende 24 uur)

TLE

VersSource: Space-Track

Epoch: Sep 14, 2026, 10:43 UTC

1 64663U 24140AFD 26257.44656079  .00004116  00000-0  72981-3 0  9991
2 64663  89.0431 263.4447 0085836 299.7892  59.4806 14.64710278100359

Volg CZ-6A DEB in realtime met AllMySat

Download on the App Store